Regional Weather Roundup
Issued by NWS

Home | Current Version | Previous Version | Graphics & Text | Print | Product List | Glossary On
Versions: 1 2 3 4 5 6 7 8 9 10 11 12 13 14 15 16 17 18 19 20 21 22 23 24 25 26 27 28 29 30 31 32 33 34 35 36 37 38 39 40 41 42 43 44 45 46 47 48 49 50
460
ASUS43 KOAX 182202
RWRNE

WEATHER ROUNDUP FOR NEBRASKA
NATIONAL WEATHER SERVICE OMAHA NE
400 PM CST WED JAN 18 2017

NOTES: SATELLITE DATA IS BEING USED TO AUGMENT CLOUD COVER ABOVE
       12000 FEET.
       "FAIR" INDICATES FEW OR NO CLOUDS BELOW 12,000 FEET WITH NO
       SIGNIFICANT WEATHER AND/OR OBSTRUCTIONS TO VISIBILITY.

  * THESE STATIONS DO NOT REPORT WEATHER SUCH AS RAIN...SNOW OR FOG.

NEZ001>004-019>022-054>056-182300-
NEBRASKA PANHANDLE

CITY           SKY/WX    TMP DP  RH WIND       PRES   REMARKS
SCOTTSBLUFF    CLOUDY    47  29  49 E5        29.74F
ALLIANCE       CLOUDY    51  22  31 W8        29.73S
CHADRON        CLOUDY    38  27  64 SW6       29.71F WCI  33
SIDNEY         CLOUDY    50  27  40 SW8       29.76F
$$

NEZ057>060-069>072-079>082-182300-
SOUTHWEST NEBRASKA

CITY           SKY/WX    TMP DP  RH WIND       PRES   REMARKS
NORTH PLATTE   SUNNY     49  33  54 S12       29.80S
IMPERIAL       CLOUDY    43  31  62 SE8       29.80S
LEXINGTON      SUNNY     46  37  71 S14       29.83S
MCCOOK         SUNNY     50  38  63 S13       29.82F
OGALLALA       SUNNY     49  31  48 SW5       29.78F
$$

NEZ005>010-023>029-035>040-094-182300-
NORTH CENTRAL NEBRASKA

CITY           SKY/WX    TMP DP  RH WIND       PRES   REMARKS
VALENTINE      SUNNY     60  19  20 N3        29.71F
AINSWORTH      SUNNY     54  24  32 S8        29.73F
BROKEN BOW     CLOUDY    45  36  70 S12       29.80S
O`NEILL        SUNNY     52  35  53 S13       29.78S
ORD            SUNNY     44  35  70 S17       29.80F
THEDFORD       SUNNY     54  27  34 SW12G17   29.77S
$$

NEZ041-046>049-061>064-073>077-083>087-182300-
SOUTH CENTRAL NEBRASKA

CITY           SKY/WX    TMP DP  RH WIND       PRES   REMARKS
GRAND ISLAND   SUNNY     47  40  76 S18       29.85S
AURORA         SUNNY     46  41  82 S12       29.86S
HASTINGS       SUNNY     47  40  76 S12       29.87F
HEBRON         SUNNY     50  39  66 S7        29.91F
HOLDREGE       SUNNY     47  37  68 S13       29.85S
KEARNEY *      SUNNY     46  37  71 S18       29.84S
YORK           SUNNY     46  41  81 S15G22    29.88R
$$

NEZ011>018-030>034-042>045-182300-
NORTHEAST NEBRASKA

CITY           SKY/WX    TMP DP  RH WIND       PRES   REMARKS
NORFOLK        SUNNY     48  39  71 S12       29.82F
ALBION         SUNNY     45  38  75 S12       29.82F
BLAIR          SUNNY     51  41  68 S17       29.89S
FREMONT        SUNNY     50  39  66 S13       29.88S
TEKAMAH        SUNNY     49  40  71 S12       29.88F
WAYNE          SUNNY     49  42  76 S9        29.83F
$$

NEZ050>053-065>068-078-088>093-182300-
SOUTHEAST NEBRASKA

CITY           SKY/WX    TMP DP  RH WIND       PRES   REMARKS
LINCOLN        SUNNY     50  39  66 S18G25    29.91F
OMAHA EPPLEY   MOSUNNY   48  40  73 SE13      29.91S
BEATRICE       SUNNY     52  40  64 S13       29.92F
FALLS CITY     SUNNY     51  38  60 S10       29.96F
NEBRASKA CITY  SUNNY     50  35  57 S10       29.94S
PLATTSMOUTH    SUNNY     50  37  61 S13       29.93  THUNDER
$$

NEZ044-045-051>053-067-182300-
OMAHA AREA

CITY           SKY/WX    TMP DP  RH WIND       PRES   REMARKS
OMAHA EPPLEY   MOSUNNY   48  40  73 SE13      29.91S
BLAIR          SUNNY     51  41  68 S17       29.89S
FREMONT        SUNNY     50  39  66 S13       29.88S
MILLARD        SUNNY     53  43  68 S10       29.91S
OFFUTT AFB     SUNNY     49  45  84 S10       29.92S
PLATTSMOUTH    SUNNY     50  37  61 S13       29.93  THUNDER
WAHOO          FAIR      49  39  67 S12G20    29.89S
$$




USA.gov is the U.S. government's official web portal to all federal, state and local government web resources and services.